カタログに戻る

STARLINK-31519

運用中通信VLEO
NORAD 59546·PAYLOAD·🇺🇸 United States

打ち上げ Apr 18, 2024 から Cape Canaveral Space Force Station

Loading…

次のパス (今後24時間)

TLE

最新Source: CelesTrak SupGP

元期: Sep 14, 2026, 21:14 UTC

1 59546C 24074N   26257.88520833  .00000844  00000+0  30582-4 0  2579
2 59546  43.0015 354.6908 0001496 276.4161  78.6230 15.27568014    12

AllMySatでSTARLINK-31519をリアルタイム追跡

Download on the App Store